Flag for U.S.A. Weather past 2 weeks in Metairie, Louisiana, U.S.A.

Now
75 °F

Mostly cloudy.


Feels Like: 76 °F
Forecast: 79 / 89 °F
Wind: 9 mph from West

Location: New Orleans International Airport

Current Time: Jul 1, 2015 at 12:13:30 AM

Latest Report: Jun 30, 2015 at 10:53 PM


Visibility: 10 mi

Pressure: 30.13 "Hg

Humidity: 76%

Dew point: 67 °F

Location of MetairieLocation

Historic Weather in Metairie — Graph

°F

Metairie temperature yesterday

Maximum temperature yesterday: 91 °F (at 1:53 PM)
Minimum temperature yesterday: 75 °F (at 10:53 PM)
Average temperature yesterday: 82 °F

Past Weeks' High & Low Weather Summary

 TemperatureHumidityPressure
High93 °F (Jun 23, 12:53 PM)91% (Jun 25, 5:53 AM)30.18 "Hg (Jun 25, 5:53 AM)
Low74 °F (Jun 25, 5:53 AM)40% (Jun 21, 4:53 PM)29.95 "Hg (Jun 27, 6:53 PM)
Average82 °F72%30.07 "Hg
* Reported Jun 15 10:53 PM — Jun 30 10:53 PM, Metairie, Weather by CustomWeather, © 2015

Note: Actual official high and low records may vary slightly from our data, if they occured in-between our weather recording intervals... More about our weather records

Advertising

Metairie weather history for previous 24 hours

 ConditionsComfort  
Time TempWeatherWind HumidityBarometerVisibility
10:53 PM
Tue, Jun 30
75 °FMostly cloudy.9 mph76%30.13 "Hg10 mi
9:53 PM77 °FMostly cloudy.10 mph74%30.13 "Hg10 mi
8:53 PM76 °FLight rain. Mostly cloudy.6 mph77%30.10 "Hg10 mi
7:53 PM78 °FCloudy.8 mph69%30.06 "Hg10 mi
6:53 PM79 °FMore clouds than sun.10 mph72%30.03 "Hg10 mi
5:53 PM81 °FMostly cloudy.18 mph67%30.08 "Hg10 mi
4:53 PM85 °FMostly cloudy.17 mph61%30.07 "Hg10 mi
3:53 PM89 °FBroken clouds.10 mph46%30.06 "Hg10 mi
2:53 PM90 °FBroken clouds.16 mph54%30.06 "Hg10 mi
1:53 PM91 °FBroken clouds.8 mph50%30.06 "Hg10 mi
12:53 PM90 °FScattered clouds.9 mph54%30.09 "Hg10 mi
11:53 AM89 °FScattered clouds.14 mph55%30.09 "Hg10 mi
10:53 AM87 °FBroken clouds.13 mph65%30.09 "Hg10 mi
9:53 AM87 °FPartly sunny.12 mph67%30.09 "Hg10 mi
8:53 AM84 °FPartly sunny.12 mph74%30.09 "Hg10 mi
7:53 AM81 °FPartly sunny.8 mph79%30.07 "Hg10 mi
6:53 AM80 °FPassing clouds.7 mph85%30.06 "Hg10 mi
5:53 AM79 °FPassing clouds.8 mph84%30.05 "Hg10 mi
4:53 AM78 °FPassing clouds.9 mph82%30.02 "Hg10 mi
3:53 AM79 °FPartly cloudy.9 mph74%30.02 "Hg10 mi
2:53 AM78 °FPartly cloudy.7 mph76%30.04 "Hg10 mi
1:53 AM78 °FPassing clouds.8 mph79%30.06 "Hg10 mi
12:53 AM80 °FPassing clouds.9 mph81%30.06 "Hg10 mi
Weather by CustomWeather, © 2015

See weather overviewHow to use our weather pages